Date String (YYYY-MM-DD hh:mm:ss) UTC,Instrument flags,Ambient pressure (hPa),Sample flow (lpm),Bypass flow (lpm),Sample temperature (°C),Ambient temperature (°C),ASC tube jacket temperature (°C),LED temperature (°C),Box temperature (°C),Sample RH (%),Span deviation,Mass concentration (μg/m³),Mass concentration (μg/m³),Mass concentration (μg/m³)
DateTimeUTC,F1_M11,P_M11,Q1_M11,Q2_M11,T1_M11,T2_M11,T3_M11,T4_M11,T5_M11,U1_M11,ZSPAN_M11,X0_M11,X2_M11,X1_M11
2023-02-13 12:00:00,,0820.3,5.02,0.00,22.1,20.4,00.0,31.0,23.8,08.7,0000.0,0003.19,0001.92,0001.52
2023-02-13 12:01:00,,0820.3,5.00,0.00,22.1,20.4,00.0,31.0,23.8,08.7,0000.0,0003.22,0001.99,0001.60
2023-02-13 12:02:00,,0820.2,4.99,0.00,22.1,20.4,00.0,31.0,23.8,08.7,0000.0,0003.45,0002.12,0001.69
2023-02-13 12:03:00,,0820.2,5.01,0.00,22.0,20.3,00.0,31.0,23.8,08.7,0000.0,0003.49,0002.20,0001.77
2023-02-13 12:04:00,,0820.2,5.00,0.00,22.0,20.3,00.0,30.9,23.8,08.7,0000.0,0003.50,0002.27,0001.84
2023-02-13 12:05:00,,0820.2,4.99,0.00,22.0,20.4,00.0,30.9,23.8,08.7,0000.0,0003.65,0002.37,0001.92
2023-02-13 12:06:00,,0820.2,5.06,0.00,22.1,21.6,00.0,30.9,24.0,08.7,0000.0,0003.74,0002.48,0002.01
2023-02-13 12:07:00,,0820.2,4.99,0.00,22.2,22.7,00.0,30.9,24.3,08.6,0000.0,0004.04,0002.57,0002.08
2023-02-13 12:08:00,,0820.3,5.00,0.00,22.4,23.1,00.0,30.9,24.5,08.7,0000.0,0005.45,0002.65,0002.11
2023-02-13 12:09:00,,0820.3,5.04,0.00,22.4,22.6,00.0,31.0,24.4,08.6,0000.0,0005.97,0002.67,0002.11
2023-02-13 12:10:00,,0820.2,5.01,0.00,22.4,22.1,00.0,31.1,24.3,08.7,0000.0,0005.97,0002.67,0002.10
2023-02-13 12:11:00,,0820.2,4.98,0.00,22.4,21.7,00.0,31.1,24.3,08.7,0000.0,0005.92,0002.68,0002.11
2023-02-13 12:12:00,,0820.2,5.00,0.00,22.4,21.4,00.0,31.1,24.2,08.7,0000.0,0006.07,0002.74,0002.12
2023-02-13 12:13:00,,0820.2,5.02,0.00,22.4,21.3,00.0,31.1,24.2,08.7,0000.0,0005.88,0002.70,0002.12
2023-02-13 12:14:00,,0820.2,5.00,0.00,22.4,21.1,00.0,31.1,24.1,08.8,0000.0,0005.93,0002.70,0002.12
2023-02-13 12:15:00,,0820.2,5.00,0.00,22.3,20.9,00.0,31.1,24.1,08.7,0000.0,0006.05,0002.70,0002.14
2023-02-13 12:16:00,,0820.2,5.03,0.00,22.3,20.8,00.0,31.1,24.1,08.8,0000.0,0006.28,0002.72,0002.18
2023-02-13 12:17:00,,0820.2,5.01,0.00,22.3,20.7,00.0,31.1,24.1,08.9,0000.0,0007.01,0002.75,0002.22
2023-02-13 12:18:00,,0820.2,4.99,0.00,22.3,20.7,00.0,31.2,24.1,09.0,0000.0,0006.85,0002.78,0002.28
2023-02-13 12:19:00,,0820.2,4.99,0.00,22.3,20.7,00.0,31.1,24.1,09.2,0000.0,0005.83,0002.81,0002.36
2023-02-13 12:20:00,,0820.2,5.00,0.00,22.3,20.7,00.0,31.1,24.1,09.4,0000.0,0006.23,0002.96,0002.48
2023-02-13 12:21:00,,0820.2,4.99,0.00,22.3,20.6,00.0,31.1,24.1,09.6,0000.0,0006.44,0003.09,0002.60
2023-02-13 12:22:00,,0820.2,5.01,0.00,22.3,20.6,00.0,31.1,24.1,09.5,0000.0,0006.95,0003.18,0002.73
2023-02-13 12:23:00,,0820.2,4.99,0.00,22.3,20.5,00.0,31.1,24.0,09.0,0000.0,0007.46,0003.24,0002.80
2023-02-13 12:24:00,,0820.2,4.98,0.00,22.2,20.5,00.0,31.1,24.0,08.4,0000.0,0007.60,0003.29,0002.80
2023-02-13 12:25:00,,0820.2,4.99,0.00,22.2,20.5,00.0,31.1,24.0,08.0,0000.0,0008.62,0003.33,0002.75
2023-02-13 12:26:00,,0820.1,4.98,0.00,22.2,20.5,00.0,31.1,24.0,07.8,0000.0,0008.77,0003.35,0002.68
2023-02-13 12:27:00,,0820.1,4.99,0.00,22.3,21.2,00.0,31.1,24.1,07.7,0000.0,0008.83,0003.33,0002.58
2023-02-13 12:28:00,,0820.0,5.02,0.00,22.4,22.4,00.0,31.1,24.4,07.6,0000.0,0008.30,0003.27,0002.47
2023-02-13 12:29:00,,0820.0,4.99,0.00,22.5,23.2,00.0,31.1,24.6,07.5,0000.0,0008.38,0003.22,0002.33
2023-02-13 12:30:00,,0820.0,5.10,0.00,22.6,22.8,00.0,31.2,24.6,07.4,0000.0,0008.39,0003.14,0002.17
2023-02-13 12:31:00,,0820.0,5.00,0.00,22.6,22.4,00.0,31.2,24.5,07.4,0000.0,0007.82,0002.96,0001.98
2023-02-13 12:32:00,,0820.0,4.99,0.00,22.6,22.0,00.0,31.2,24.4,07.5,0000.0,0007.55,0002.76,0001.77
2023-02-13 12:33:00,,0819.9,4.98,0.00,22.6,21.8,00.0,31.3,24.4,07.5,0000.0,0007.53,0002.55,0001.56
2023-02-13 12:34:00,,0819.9,5.00,0.00,22.6,21.5,00.0,31.3,24.4,07.6,0000.0,0007.22,0002.39,0001.41
2023-02-13 12:35:00,,0820.0,5.01,0.00,22.6,21.4,00.0,31.3,24.4,07.6,0000.0,0007.11,0002.31,0001.34
2023-02-13 12:36:00,,0820.0,4.99,0.00,22.5,21.2,00.0,31.3,24.3,07.7,0000.0,0005.85,0002.18,0001.32
2023-02-13 12:37:00,,0820.0,5.00,0.00,22.5,21.2,00.0,31.3,24.3,07.8,0000.0,0007.35,0002.16,0001.34
2023-02-13 12:38:00,,0819.9,5.01,0.00,22.5,21.0,00.0,31.3,24.3,07.6,0000.0,0008.06,0002.19,0001.38
2023-02-13 12:39:00,,0820.0,5.01,0.00,22.5,20.9,00.0,31.3,24.3,07.7,0000.0,0008.05,0002.25,0001.42
2023-02-13 12:40:00,,0820.0,4.98,0.00,22.5,20.9,00.0,31.3,24.2,08.0,0000.0,0008.44,0002.32,0001.48
2023-02-13 12:41:00,,0820.0,4.98,0.00,22.5,20.8,00.0,31.3,24.2,08.1,0000.0,0008.59,0002.42,0001.56
2023-02-13 12:42:00,,0820.0,5.02,0.00,22.4,20.8,00.0,31.3,24.2,07.9,0000.0,0008.75,0002.52,0001.63
2023-02-13 12:43:00,,0820.0,5.00,0.00,22.4,20.7,00.0,31.3,24.2,08.0,0000.0,0009.26,0002.57,0001.69
2023-02-13 12:44:00,,0820.0,4.99,0.00,22.4,20.7,00.0,31.3,24.2,08.1,0000.0,0009.24,0002.64,0001.75
2023-02-13 12:45:00,,0819.9,5.01,0.00,22.4,20.6,00.0,31.3,24.1,08.0,0000.0,0009.22,0002.68,0001.79
2023-02-13 12:46:00,,0819.9,4.99,0.00,22.4,20.7,00.0,31.3,24.1,07.9,0000.0,0009.20,0002.69,0001.81
2023-02-13 12:47:00,,0819.9,5.00,0.00,22.4,20.6,00.0,31.3,24.1,08.0,0000.0,0009.10,0002.70,0001.84
2023-02-13 12:48:00,,0819.9,4.99,0.00,22.3,20.7,00.0,31.2,24.1,07.9,0000.0,0007.78,0002.64,0001.86
2023-02-13 12:49:00,,0819.9,4.98,0.00,22.4,21.5,00.0,31.2,24.3,07.7,0000.0,0006.59,0002.60,0001.86
2023-02-13 12:50:00,,0819.9,5.04,0.00,22.5,22.6,00.0,31.2,24.5,07.6,0000.0,0006.47,0002.57,0001.87
2023-02-13 12:51:00,,0820.0,5.03,0.00,22.6,23.2,00.0,31.2,24.7,07.5,0000.0,0005.79,0002.52,0001.86
2023-02-13 12:52:00,,0820.0,5.03,0.00,22.7,22.7,00.0,31.3,24.6,07.4,0000.0,0005.24,0002.43,0001.83
2023-02-13 12:53:00,,0820.0,4.99,0.00,22.7,22.3,00.0,31.3,24.6,07.4,0000.0,0005.04,0002.37,0001.82
2023-02-13 12:54:00,,0819.9,4.99,0.00,22.7,22.0,00.0,31.4,24.5,07.3,0000.0,0004.09,0002.35,0001.82
2023-02-13 12:55:00,,0819.9,5.02,0.00,22.6,21.8,00.0,31.4,24.5,07.2,0000.0,0003.77,0002.31,0001.79
2023-02-13 12:56:00,,0819.9,5.02,0.00,22.6,21.5,00.0,31.4,24.4,07.2,0000.0,0003.53,0002.25,0001.78
2023-02-13 12:57:00,,0819.9,4.98,0.00,22.6,21.3,00.0,31.4,24.4,07.1,0000.0,0003.30,0002.18,0001.75
2023-02-13 12:58:00,,0819.9,5.00,0.00,22.6,21.2,00.0,31.4,24.4,07.1,0000.0,0003.89,0002.19,0001.74
2023-02-13 12:59:00,,0820.0,4.99,0.00,22.6,21.0,00.0,31.4,24.3,07.1,0000.0,0004.38,0002.20,0001.71
